Simultaneous Nadir Overpasses (SNOs) Predictions

Prediction of SNOs between NOAA-20 and AQUA Satellite Orbit:

Table of predicted SNOs for the next 14.0 days since TLE Epoch: 4/27/2024
Index Date (NOAA-20) Time (NOAA-20) Lat,Lon (NOAA-20) SZA (NOAA-20 ) Date (AQUA) Time (AQUA) Lat,Lon (AQUA) SZA (AQUA ) Distance(km) Time Diff (sec)
1 04/28/2024 14:22:34 81.23,-113.60 73.81 04/28/2024 14:23:42 81.23,-113.43 73.74 2.95 68
2 04/28/2024 15:13:17 -81.25, 54.65 106.34 04/28/2024 15:13:04 -81.25, 54.46 106.31 3.20 13
3 05/01/2024 03:16:25 81.24, 53.20 72.99 05/01/2024 03:17:12 81.24, 53.39 72.94 3.29 47
4 05/01/2024 04:07:08 -81.26,-138.53 107.16 05/01/2024 04:06:34 -81.25,-138.71 107.11 3.15 34
5 05/03/2024 16:10:16 81.24,-140.11 72.22 05/03/2024 16:10:40 81.24,-140.01 72.19 1.76 24
6 05/03/2024 17:01:00 -81.25, 27.79 107.88 05/03/2024 17:00:02 -81.25, 27.89 107.86 1.70 58
7 05/06/2024 05:04:04 81.26, 27.24 71.38 05/06/2024 05:04:03 81.26, 27.13 71.40 1.77 1
8 05/08/2024 17:07:13 -81.24, 25.53 109.17 05/08/2024 17:08:05 -81.24, 25.72 109.23 3.20 52



Historial Predications of SNOs between NOAA-20 and AQUA
